Weather History for KDAL - May, 2014

Change the Weather History Date:

Tuesday, May 27, 2014

  Actual Average Record
Temperature  
Mean Temperature 72 °F -  
Max Temperature 78 °F 86 °F 96 °F (2011)
Min Temperature 66 °F 67 °F 63 °F (2003)
Cooling Degree Days 7    
Growing Degree Days 22 (Base 50)    
Moisture  
Dew Point 63 °F    
Average Humidity 79    
Maximum Humidity 93    
Minimum Humidity 58    
Precipitation  
Precipitation 0.21 in - - ()
Sea Level Pressure  
Sea Level Pressure 29.91 in    
Wind  
Wind Speed 7 mph (SSW)    
Max Wind Speed 12 mph    
Max Gust Speed -    
Visibility 9 miles    
Events Rain , Thunderstorm    
Averages and records for this station are not official NWS values.
T = Trace of Precipitation, MM = Missing Value Source: NWS Daily Summary

Daily Weather History Graph

Daily Weather History Graph

Search for Another Location

Airport or City:

Trip Planner

Search our weather history database for the weather conditions in past years. The results will help you decide how hot, cold, wet, or windy it might be!

Date:

Astronomy

May. 27, 2014 Rise Set
Actual Time 6:21 AM CDT 8:27 PM CDT
Civil Twilight 5:53 AM CDT 8:55 PM CDT
Nautical Twilight 5:19 AM CDT 9:29 PM CDT
Astronomical Twilight 4:43 AM CDT 10:06 PM CDT
Moon 5:39 AM CDT (5/27) 7:35 PM CDT (5/27)
Length of Visible Light 15h 01m
Length of Day
14h 06m
Waning Crescent, 1% of the Moon is Illuminated
May 27
Waning Crescent
May 28
New
Jun 5
First Quarter
Jun 12
Full
Jun 19
Last Quarter

Hourly Weather History & Observations

Time (CDT) Temp. Dew Point Humidity Pressure Visibility Wind Dir Wind Speed Gust Speed Precip Events Conditions
12:53 AM 71.1 °F 62.1 °F 73% 29.95 in 10.0 mi SSE 8.1 mph - N/A   Mostly Cloudy
1:29 AM 70.0 °F 62.1 °F 76% 30.00 in 10.0 mi SSW 8.1 mph - N/A Thunderstorm Thunderstorm
1:37 AM 70.0 °F 63.0 °F 78% 29.99 in 10.0 mi SW 4.6 mph - N/A Thunderstorm Thunderstorm
1:53 AM 70.0 °F 63.0 °F 78% 29.97 in 9.0 mi South 3.5 mph - 0.00 in Rain , Thunderstorm Light Thunderstorms and Rain
2:53 AM 68.0 °F 64.0 °F 87% 29.94 in 8.0 mi SSW 4.6 mph - 0.04 in Rain , Thunderstorm Light Thunderstorms and Rain
3:01 AM 68.0 °F 64.0 °F 87% 29.95 in 6.0 mi South 6.9 mph - 0.00 in Rain , Thunderstorm Light Thunderstorms and Rain
3:30 AM 66.9 °F 64.0 °F 90% 29.93 in 6.0 mi SSE 4.6 mph - 0.07 in Rain Light Rain
3:53 AM 66.9 °F 64.0 °F 90% 29.90 in 8.0 mi SE 8.1 mph - 0.09 in Rain Light Rain
4:53 AM 66.9 °F 64.0 °F 90% 29.86 in 8.0 mi SE 8.1 mph - 0.03 in Rain Light Rain
5:25 AM 66.9 °F 64.0 °F 90% 29.92 in 7.0 mi SW 4.6 mph - 0.01 in   Scattered Clouds
5:53 AM 66.0 °F 64.0 °F 93% 29.89 in 10.0 mi SSW 4.6 mph - 0.01 in   Overcast
6:09 AM 66.0 °F 64.0 °F 93% 29.90 in 9.0 mi SSW 4.6 mph - N/A   Overcast
6:53 AM 66.0 °F 63.0 °F 90% 29.92 in 5.0 mi West 6.9 mph - N/A   Overcast
7:08 AM 66.0 °F 63.0 °F 90% 29.93 in 5.0 mi WSW 4.6 mph - N/A   Overcast
7:53 AM 66.0 °F 62.1 °F 87% 29.92 in 8.0 mi SW 4.6 mph - N/A   Mostly Cloudy
8:53 AM 66.0 °F 62.1 °F 87% 29.92 in 10.0 mi Variable 3.5 mph - N/A   Mostly Cloudy
9:53 AM 68.0 °F 63.0 °F 84% 29.94 in 10.0 mi South 5.8 mph - N/A   Mostly Cloudy
10:28 AM 69.1 °F 62.1 °F 78% 29.95 in 10.0 mi SSW 5.8 mph - N/A   Mostly Cloudy
10:53 AM 70.0 °F 62.1 °F 76% 29.94 in 10.0 mi SSW 5.8 mph - N/A   Mostly Cloudy
11:38 AM 72.0 °F 62.1 °F 71% 29.95 in 10.0 mi South 9.2 mph - N/A   Mostly Cloudy
11:53 AM 73.0 °F 62.1 °F 68% 29.93 in 10.0 mi South 10.4 mph - N/A   Mostly Cloudy
12:11 PM 73.0 °F 62.1 °F 68% 29.94 in 10.0 mi South 10.4 mph - N/A   Mostly Cloudy
12:53 PM 75.0 °F 62.1 °F 64% 29.91 in 10.0 mi South 9.2 mph - N/A   Mostly Cloudy
1:20 PM 73.9 °F 60.1 °F 62% 29.92 in 10.0 mi South 9.2 mph - N/A   Mostly Cloudy
1:53 PM 78.1 °F 62.1 °F 58% 29.90 in 10.0 mi South 10.4 mph - N/A   Mostly Cloudy
2:53 PM 75.9 °F 61.0 °F 60% 29.89 in 10.0 mi South 11.5 mph - N/A   Mostly Cloudy
3:53 PM 75.2 °F 60.8 °F 61% 29.88 in 10.0 mi South 10.4 mph - N/A   Mostly Cloudy
4:53 PM 73.9 °F 63.0 °F 68% 29.85 in 8.0 mi SW 4.6 mph - 0.00 in   Overcast
5:53 PM 73.0 °F 64.9 °F 76% 29.85 in 9.0 mi SW 4.6 mph - 0.00 in Rain Light Rain
6:53 PM 75.0 °F 66.9 °F 76% 29.83 in 8.0 mi Variable 4.6 mph - 0.04 in   Mostly Cloudy
7:53 PM 73.0 °F 61.0 °F 66% 29.85 in 10.0 mi SW 6.9 mph - N/A   Mostly Cloudy
8:53 PM 71.1 °F 64.9 °F 81% 29.86 in 10.0 mi SSW 6.9 mph - N/A   Mostly Cloudy
9:53 PM 71.1 °F 64.9 °F 81% 29.88 in 10.0 mi Calm Calm - N/A   Scattered Clouds
10:53 PM 70.0 °F 64.9 °F 84% 29.88 in 10.0 mi SSW 3.5 mph - N/A   Scattered Clouds
11:53 PM 69.1 °F 64.9 °F 87% 29.90 in 10.0 mi South 4.6 mph - N/A   Overcast